TimeEST,TemperatureF,Dew PointF,Humidity,Sea Level PressureIn,VisibilityMPH,Wind Direction,Wind SpeedMPH,Gust SpeedMPH,PrecipitationIn,Events,Conditions,WindDirDegrees,DateUTC
12:15 AM,37.4,37.4,100,30.21,10.0,Calm,Calm,-,N/A,,Clear,0,2012-11-27 05:15:00
12:35 AM,35.6,35.6,100,30.21,10.0,Calm,Calm,-,N/A,,Clear,0,2012-11-27 05:35:00
12:55 AM,35.6,35.6,100,30.21,10.0,Calm,Calm,-,N/A,,Clear,0,2012-11-27 05:55:00
1:15 AM,35.6,35.6,100,30.21,10.0,Calm,Calm,-,N/A,,Clear,0,2012-11-27 06:15:00
1:35 AM,35.6,35.6,100,30.21,10.0,Calm,Calm,-,N/A,,Clear,0,2012-11-27 06:35:00
1:55 AM,35.6,35.6,100,30.20,10.0,Calm,Calm,-,N/A,,Clear,0,2012-11-27 06:55:00
2:15 AM,35.6,35.6,100,30.21,10.0,Calm,Calm,-,N/A,,Clear,0,2012-11-27 07:15:00
2:55 AM,35.6,35.6,100,30.21,10.0,Calm,Calm,-,N/A,,Clear,0,2012-11-27 07:55:00
3:15 AM,35.6,35.6,100,30.21,10.0,Calm,Calm,-,N/A,,Clear,0,2012-11-27 08:15:00
3:35 AM,33.8,33.8,100,30.20,10.0,Calm,Calm,-,N/A,,Clear,0,2012-11-27 08:35:00
3:55 AM,33.8,33.8,100,30.20,10.0,SW,3.5,-,N/A,,Clear,230,2012-11-27 08:55:00
4:15 AM,35.6,35.6,100,30.19,10.0,SW,3.5,-,N/A,,Clear,230,2012-11-27 09:15:00
4:35 AM,39.2,39.2,100,30.19,10.0,WSW,3.5,-,N/A,,Clear,240,2012-11-27 09:35:00
4:55 AM,41.0,41.0,100,30.19,10.0,WSW,3.5,-,N/A,,Clear,240,2012-11-27 09:55:00
5:15 AM,44.6,44.6,100,30.19,10.0,WSW,4.6,-,N/A,,Clear,240,2012-11-27 10:15:00
5:35 AM,42.8,42.8,100,30.19,10.0,SW,5.8,-,N/A,,Clear,220,2012-11-27 10:35:00
5:55 AM,44.6,44.6,100,30.19,10.0,WSW,4.6,-,N/A,,Clear,240,2012-11-27 10:55:00
6:15 AM,44.6,44.6,100,30.20,10.0,WSW,3.5,-,N/A,,Clear,250,2012-11-27 11:15:00
6:55 AM,42.8,42.8,100,30.20,10.0,Calm,Calm,-,N/A,,Clear,0,2012-11-27 11:55:00
7:15 AM,41.0,41.0,100,30.21,10.0,Calm,Calm,-,N/A,,Clear,0,2012-11-27 12:15:00
7:35 AM,42.8,42.8,100,30.21,10.0,Calm,Calm,-,N/A,,Clear,0,2012-11-27 12:35:00
7:55 AM,42.8,42.8,100,30.21,10.0,Calm,Calm,-,N/A,,Clear,0,2012-11-27 12:55:00
8:15 AM,44.6,44.6,100,30.21,10.0,Calm,Calm,-,N/A,,Clear,0,2012-11-27 13:15:00
8:35 AM,46.4,46.4,100,30.21,10.0,Calm,Calm,-,N/A,,Clear,0,2012-11-27 13:35:00
8:55 AM,51.8,46.4,82,30.21,10.0,Calm,Calm,-,N/A,,Clear,0,2012-11-27 13:55:00
9:15 AM,53.6,44.6,72,30.21,10.0,WNW,3.5,-,N/A,,Clear,300,2012-11-27 14:15:00
9:35 AM,55.4,44.6,67,30.21,10.0,West,3.5,-,N/A,,Clear,270,2012-11-27 14:35:00
9:55 AM,55.4,44.6,67,30.21,10.0,Calm,Calm,-,N/A,,Clear,0,2012-11-27 14:55:00
10:15 AM,57.2,42.8,59,30.19,10.0,Calm,Calm,-,N/A,,Clear,0,2012-11-27 15:15:00
10:35 AM,59.0,44.6,59,30.19,10.0,Calm,Calm,-,N/A,,Clear,0,2012-11-27 15:35:00
10:55 AM,59.0,44.6,59,30.19,10.0,WSW,3.5,-,N/A,,Scattered Clouds,240,2012-11-27 15:55:00
11:15 AM,59.0,46.4,63,30.19,10.0,West,3.5,-,N/A,,Mostly Cloudy,270,2012-11-27 16:15:00
11:35 AM,57.2,46.4,67,30.18,10.0,Calm,Calm,-,N/A,,Overcast,0,2012-11-27 16:35:00
11:55 AM,59.0,46.4,63,30.18,10.0,Calm,Calm,-,N/A,,Mostly Cloudy,0,2012-11-27 16:55:00
12:15 PM,59.0,46.4,63,30.17,10.0,WSW,3.5,-,N/A,,Overcast,240,2012-11-27 17:15:00
12:35 PM,60.8,44.6,55,30.16,10.0,WSW,3.5,-,N/A,,Mostly Cloudy,240,2012-11-27 17:35:00
12:55 PM,60.8,42.8,52,30.17,10.0,WSW,4.6,-,N/A,,Mostly Cloudy,240,2012-11-27 17:55:00
1:15 PM,60.8,42.8,52,30.16,10.0,WNW,3.5,-,N/A,,Overcast,290,2012-11-27 18:15:00
1:35 PM,60.8,44.6,55,30.16,10.0,Calm,Calm,-,N/A,Rain,Light Rain,0,2012-11-27 18:35:00
1:55 PM,59.0,50.0,72,30.17,10.0,West,4.6,-,N/A,Rain,Light Rain,280,2012-11-27 18:55:00
2:35 PM,53.6,53.6,100,30.15,7.0,NNW,3.5,-,0.06,Rain,Rain,330,2012-11-27 19:35:00
2:55 PM,53.6,53.6,100,30.14,7.0,Calm,Calm,-,0.09,Rain,Rain,0,2012-11-27 19:55:00
3:35 PM,53.6,53.6,100,30.12,10.0,Calm,Calm,-,0.02,Rain,Rain,0,2012-11-27 20:35:00
3:55 PM,53.6,53.6,100,30.11,7.0,Calm,Calm,-,0.04,Rain,Light Rain,0,2012-11-27 20:55:00
4:15 PM,51.8,51.8,100,30.07,10.0,North,13.8,-,N/A,Rain,Light Rain,350,2012-11-27 21:15:00
4:35 PM,51.8,51.8,100,30.12,10.0,South,8.1,-,0.01,,Overcast,180,2012-11-27 21:35:00
4:55 PM,51.8,51.8,100,30.14,10.0,South,3.5,-,0.01,Rain,Light Rain,190,2012-11-27 21:55:00
5:35 PM,51.8,51.8,100,30.13,10.0,NW,3.5,-,0.02,Rain,Rain,310,2012-11-27 22:35:00
6:35 PM,50.0,50.0,100,30.19,7.0,SSW,13.8,17.3,0.04,Rain,Light Rain,200,2012-11-27 23:35:00
6:55 PM,50.0,50.0,100,30.18,10.0,Calm,Calm,-,0.04,,Overcast,0,2012-11-27 23:55:00
7:15 PM,50.0,50.0,100,30.18,10.0,Calm,Calm,-,N/A,,Mostly Cloudy,0,2012-11-28 00:15:00
7:55 PM,50.0,50.0,100,30.18,7.0,Calm,Calm,-,0.01,,Light Drizzle,0,2012-11-28 00:55:00
8:15 PM,50.0,50.0,100,30.17,10.0,Calm,Calm,-,N/A,,Mostly Cloudy,0,2012-11-28 01:15:00
8:35 PM,50.0,50.0,100,30.18,10.0,NNW,5.8,-,N/A,Rain,Light Rain,340,2012-11-28 01:35:00
9:35 PM,50.0,50.0,100,30.18,10.0,Calm,Calm,-,N/A,,Mostly Cloudy,0,2012-11-28 02:35:00
9:55 PM,48.2,48.2,100,30.17,4.0,North,3.5,-,N/A,,Scattered Clouds,360,2012-11-28 02:55:00
10:15 PM,50.0,50.0,100,30.17,7.0,Calm,Calm,-,N/A,,Scattered Clouds,0,2012-11-28 03:15:00
10:35 PM,50.0,50.0,100,30.18,4.0,Calm,Calm,-,N/A,,Mostly Cloudy,0,2012-11-28 03:35:00
10:55 PM,50.0,50.0,100,30.17,7.0,Calm,Calm,-,N/A,,Overcast,0,2012-11-28 03:55:00
11:15 PM,50.0,50.0,100,30.16,5.0,Calm,Calm,-,N/A,,Scattered Clouds,0,2012-11-28 04:15:00
11:35 PM,50.0,50.0,100,30.17,7.0,Calm,Calm,-,N/A,,Scattered Clouds,0,2012-11-28 04:35:00
11:55 PM,50.0,50.0,100,30.18,7.0,NNW,4.6,-,N/A,,Overcast,330,2012-11-28 04:55:00